Location: ??????
(55.7522°N, 37.6156°E)
Time: 18:08:15
(UTC+00:00)

Cosmos 1833 Rocket - Pass Details

Date: 14 June 2025
Orbit: 832 x 837 km, 71.0° (Epoch: 13 July)

Event Time Altitude Azimuth Distance (km) Brightness Sun altitude
Rises 23:32:05 0° 320° (NW) 3,397 6.2 -6.8°
Reaches altitude 10° 23:35:02 10° 306° (NW) 2,457 5.2 -6.6°
Maximum altitude 23:39:13 22° 258° (WSW) 1,755 4.0 -6.3°
Drops below altitude 10° 23:43:23 10° 209° (SSW) 2,441 4.4 -6.0°
Enters shadow 23:44:16 - 204° (SSW) 2,702 4.6 -5.9°
